Location: Banksville Park
(38.5557°N, 75.1182°W)
Time: 22:58:17
(UTC+00:00)

Cosmos 990 Rocket - Pass Details

Date: 19 September 2020
Orbit: 746 x 769 km, 74.0° (Epoch: 30 October)

Event Time Altitude Azimuth Distance (km) Brightness Sun altitude
Rises 09:22:05 0° 343° (NNW) 3,214 7.2 -17.0°
Reaches altitude 10° 09:24:28 10° 346° (NNW) 2,289 6.5 -16.5°
Maximum altitude 09:29:39 70° 71° (ENE) 808 4.3 -15.6°
Drops below altitude 10° 09:34:50 10° 155° (SSE) 2,289 6.6 -14.6°
Sets 09:37:12 0° 157° (SSE) 3,214 7.4 -14.1°
